#timestamp,LO_Frequency,Hit,StdDev 
1661205615.7,286047000.5,N
1661205635.6,286047000.8,N
1661205655.4,286047000.4,N
1661205675.2,286046999.9,N
1661205695.1,286047002.8,N
1661205696.0,286047002.8,N
1661205715.8,286047000.8,N
1661205735.6,286047000.5,N
1661205755.5,286046998.5,N
1661205775.3,286047001.0,N
1661205795.2,286046998.7,N
1661205815.9,286046999.3,N
1661205835.7,286046998.2,N
1661205855.6,286047000.8,N
1661205875.4,286046999.7,N
1661205895.3,286047000.0,N
1661205915.1,286047000.1,N
1661205935.8,286047000.6,N
1661205955.7,286047001.1,N
1661205975.5,286046998.6,N
1661205995.4,286046998.3,N
1661206015.2,286047001.1,N
1661206035.0,286047001.2,N
1661206035.9,286047001.2,N
1661206055.8,286046999.3,N
1661206075.6,286046999.6,N
1661206095.4,286046999.0,N
1661206115.3,286046999.5,N
1661206135.1,286046999.1,N
1661206155.9,286046997.2,N
1661206175.7,286046997.2,N
1661206195.5,286046997.4,N
1661206215.4,286046997.1,N
1661206235.2,286046997.8,N
1661206255.0,286046997.7,N
1661206256.0,286046997.7,N
1661206275.8,286046997.1,N
1661206295.6,286046997.2,N
1661206315.5,286046997.6,N
1661206335.3,286046996.8,N
1661206355.1,286046996.7,N
1661206375.9,286046996.9,N
1661206395.7,286046995.5,Y
1661206415.6,286046996.5,P
1661206435.4,286046999.4,N
1661206455.2,286046998.9,N
1661206475.1,286046999.4,N
1661206476.0,286046999.4,N
1661206495.8,286046999.0,N
1661206515.6,286046999.4,N
1661206535.5,286046998.6,N
1661206555.3,286046998.4,N
1661206575.2,286046998.6,N
1661206595.9,286047001.1,N
1661206615.7,286046998.6,N
1661206635.6,286047000.8,N
1661206655.4,286047000.0,N
1661206675.2,286047000.4,N
1661206695.1,286047000.4,N
1661206696.0,286047000.4,N
1661206715.8,286047000.5,N
1661206735.7,286046999.9,N
1661206755.5,286046999.9,N
1661206775.3,286047001.2,N
1661206795.2,286047001.0,N
1661206815.0,286047000.6,N
1661206815.9,286047000.6,N
1661206835.7,286046999.8,N
1661206855.6,286047000.2,N
1661206875.4,286047000.1,N
1661206895.3,286047000.1,N
1661206915.1,286046999.9,N
1661206916.0,286046999.9,N
1661206935.8,286046999.9,N
1661206955.7,286047001.9,N
1661206975.5,286046999.7,N
1661206995.3,286047000.4,N
1661207015.2,286047002.7,Y
1661207035.0,286047002.6,P
1661207035.9,286047002.6,N
1661207055.8,286047002.0,N
1661207075.6,286047004.2,Y
1661207095.4,286047000.0,P
1661207115.3,286046999.8,N
1661207135.1,286047000.6,N
1661207155.9,286047000.9,N
1661207175.7,286047000.6,N
1661207195.5,286047000.5,N
1661207215.4,286047001.2,N
1661207235.2,286046998.5,N
1661207255.0,286046998.7,N
1661207256.0,286046998.7,N
1661207275.8,286046998.5,N
1661207295.6,286046998.9,N
1661207315.5,286046998.8,N
1661207335.3,286046998.2,N
1661207355.1,286047001.0,N
1661207375.9,286047000.0,N
1661207395.7,286047000.4,N
1661207415.5,286047001.2,N
1661207435.4,286046998.1,N
1661207455.2,286046998.3,N
1661207475.1,286046999.2,N
1661207476.0,286046999.2,N
1661207495.8,286046998.7,N
1661207515.6,286046999.2,N
1661207535.5,286046999.3,N
1661207555.3,286047001.2,N
1661207575.1,286047000.7,N
1661207595.9,286047001.0,N
1661207615.7,286047000.8,N
1661207635.6,286047001.0,N
1661207655.4,286047000.7,N
1661207675.2,286047001.0,N
1661207695.1,286047001.0,N
1661207696.0,286047001.0,N
1661207715.8,286047000.9,N
1661207735.7,286047000.3,N
1661207755.5,286047000.0,N
1661207775.3,286047000.0,N
1661207795.2,286047002.4,N
1661207815.0,286047002.8,N
1661207815.9,286047002.8,N
1661207835.7,286047002.7,N
1661207855.6,286047000.6,N
1661207875.4,286047000.7,N
1661207895.3,286047000.4,N
1661207915.1,286047000.3,N
1661207916.0,286047000.3,N
1661207935.8,286047000.4,N
1661207955.7,286047000.0,N
1661207975.5,286047000.5,N
1661207995.3,286047000.1,N
1661208015.2,286046999.9,N
1661208035.0,286046999.9,N
1661208035.9,286046999.9,N
1661208055.8,286047000.7,N
1661208075.6,286047000.4,N
1661208095.4,286047000.5,N
1661208115.3,286047000.1,N
1661208135.1,286046999.8,N
1661208155.9,286047002.7,Y
1661208175.7,286047000.4,P
1661208195.5,286047000.2,N
1661208215.4,286046999.7,N
1661208235.2,286046999.8,N
1661208255.0,286047000.4,N
1661208256.0,286047000.4,N
1661208275.8,286046999.7,N
1661208295.6,286047000.3,N
1661208315.5,286047000.2,N
1661208335.3,286047000.0,N
1661208355.1,286046999.7,N
1661208375.9,286047000.1,N
1661208395.7,286047000.1,N
1661208415.6,286047000.3,N
1661208435.4,286047000.1,N
1661208455.2,286046999.9,N
1661208475.1,286047002.8,Y
1661208476.0,286047002.8,P
1661208495.8,286047002.8,N
1661208515.7,286047000.4,N
1661208535.5,286046998.1,N
1661208555.3,286047000.0,N
1661208575.2,286047002.8,N
1661208595.0,286047002.8,N
1661208595.9,286047002.8,N
1661208615.7,286047000.4,N
1661208635.6,286047002.6,N
1661208655.4,286047002.7,N
1661208675.3,286046999.7,N
1661208695.1,286047002.7,N
1661208696.0,286047002.7,N
1661208715.8,286046999.7,N
1661208735.7,286047002.5,N
1661208755.5,286047002.5,N
1661208775.3,286047001.7,N
1661208795.2,286047001.6,N
1661208815.0,286047002.4,N
1661208815.9,286047002.4,N
1661208835.8,286047002.1,N
1661208855.6,286047002.5,N
1661208875.4,286047001.8,N
1661208895.3,286047002.1,N
1661208915.1,286047001.9,N
1661208935.8,286047002.1,N
1661208955.7,286046999.8,N
1661208975.5,286047000.2,N
1661208995.4,286047002.4,N
1661209015.2,286047002.6,N
1661209035.0,286047001.9,N
1661209035.9,286047001.9,N
1661209055.8,286047002.2,N
1661209075.6,286047002.1,N
1661209095.5,286047002.6,N
1661209115.3,286047002.4,N
1661209135.1,286047002.2,N
1661209155.9,286047001.4,N
1661209175.7,286047001.6,N
1661209195.5,286047004.2,Y
